FW8630 Weather Reports


time (UTC)temp
F
wind
direction
speed
knots
gust
knots
rain 1hr
in
rain 24hr
in
rain mn
in
humidity
%
barometer
mb
20260509000029 40 38 2.6 6.1 0.00 0.00 0.00 92 1027.1
20260508234527 40 37 3.5 7.8 0.00 0.00 0.00 91 1027.3
20260508233026 40 30 4.3 8.7 0.00 0.00 0.00 91 1027.3
20260508231522 40 53 3.5 7.8 0.00 0.00 0.00 90 1027.2
20260508230020 40 63 3.5 6.1 0.00 0.00 0.00 89 1027.3
20260508224520 40 52 2.6 7.0 0.00 0.00 0.00 88 1027.4
20260508223016 40 80 2.6 5.2 0.00 0.00 0.00 87 1027.5
20260508221514 40 69 2.6 6.1 0.00 0.00 0.00 85 1027.6
20260508220036 40 53 2.6 5.2 0.00 0.00 0.00 85 1027.7
20260508214511 41 40 3.5 5.2 0.00 0.00 0.00 84 1027.8
20260508213010 41 40 1.7 6.1 0.00 0.00 0.00 83 1027.7
20260508211508 41 52 2.6 4.3 0.00 0.00 0.00 83 1027.7
20260508210009 42 51 1.7 4.3 0.00 0.00 0.00 82 1027.7
20260508204508 42 61 1.7 4.3 0.00 0.00 0.00 81 1027.7
20260508203006 43 63 0.9 4.3 0.00 0.00 0.00 80 1027.5
20260508201506 43 53 1.7 4.3 0.00 0.00 0.00 79 1027.4
20260508200004 44 54 1.7 3.5 0.00 0.00 0.00 78 1027.4
20260508194504 44 28 2.6 4.3 0.00 0.00 0.00 78 1027.2
20260508193004 45 47 1.7 4.3 0.00 0.00 0.00 76 1027.3
20260508191505 46 29 3.5 8.7 0.00 0.00 0.00 75 1027.3
20260508190003 46 22 3.5 7.8 0.00 0.00 0.00 74 1027.2
20260508184504 47 58 4.3 11.3 0.00 0.00 0.00 74 1027.1
20260508183100 47 39 5.2 9.6 0.00 0.00 0.00 72 1027.0
20260508181610 48 32 2.6 7.8 0.00 0.00 0.00 70 1026.9
20260508180108 49 33 5.2 11.3 0.00 0.00 0.00 69 1026.7
20260508174619 50 32 4.3 9.6 0.00 0.00 0.00 66 1026.6
20260508173100 50 38 5.2 9.6 0.00 0.00 0.00 63 1026.4
20260508171558 51 55 4.3 11.3 0.00 0.00 0.00 63 1026.5
20260508170059 51 40 5.2 11.3 0.00 0.00 0.00 61 1026.6
20260508164556 52 64 5.2 10.4 0.00 0.00 0.00 62 1026.5
20260508163056 52 71 5.2 10.4 0.00 0.00 0.00 61 1026.5
20260508161556 53 78 4.3 13.0 0.00 0.00 0.00 62 1026.4
20260508160058 53 44 6.1 12.2 0.00 0.00 0.00 60 1026.6
20260508154554 54 80 4.3 11.3 0.00 0.00 0.00 59 1026.7
20260508153057 56 55 7.0 13.0 0.00 0.00 0.00 54 1026.7
20260508151552 56 51 3.5 10.4 0.00 0.00 0.00 54 1026.7
20260508150054 57 31 7.8 13.9 0.00 0.00 0.00 52 1026.7
20260508144554 58 360 8.7 18.2 0.00 0.00 0.00 50 1026.8
20260508143056 57 49 7.0 13.9 0.00 0.00 0.00 49 1026.9
20260508141557 57 41 8.7 13.9 0.00 0.00 0.00 51 1027.0
20260508140049 57 92 7.8 14.8 0.00 0.00 0.00 48 1027.0
20260508134558 57 19 7.8 14.8 0.00 0.00 0.00 49 1027.1
20260508133048 57 26 9.6 16.5 0.00 0.00 0.00 48 1027.1
20260508131547 57 9 8.7 13.9 0.00 0.00 0.00 48 1027.2
20260508130046 56 15 6.1 15.6 0.00 0.00 0.00 51 1027.2
20260508124546 57 351 4.3 15.6 0.00 0.00 0.00 51 1027.2
20260508123056 57 11 7.8 15.6 0.00 0.00 0.00 47 1027.3
20260508121545 57 73 7.0 14.8 0.00 0.00 0.00 49 1027.3
20260508120046 57 34 7.8 16.5 0.00 0.00 0.00 48 1027.4
20260508114549 57 63 7.0 18.2 0.00 0.00 0.00 49 1027.3
20260508113054 57 87 9.6 19.1 0.00 0.00 0.00 48 1027.3
20260508111544 57 10 9.6 18.2 0.00 0.00 0.00 51 1027.3
20260508110040 57 39 7.8 14.8 0.00 0.00 0.00 51 1027.4
20260508104541 56 66 7.8 14.8 0.00 0.00 0.00 50 1027.3
20260508103040 56 17 5.2 13.9 0.00 0.00 0.00 52 1027.2
20260508101536 57 94 8.7 17.4 0.00 0.00 0.00 52 1027.3
20260508100035 56 84 7.8 14.8 0.00 0.00 0.00 52 1027.3
20260508094542 56 45 7.0 15.6 0.00 0.00 0.00 53 1027.3
20260508093034 56 30 6.1 15.6 0.00 0.00 0.00 53 1027.3
20260508091535 56 103 7.8 16.5 0.00 0.00 0.00 53 1027.2
20260508090028 55 22 6.1 16.5 0.00 0.00 0.00 54 1027.3
20260508084526 55 360 6.1 14.8 0.00 0.00 0.00 55 1027.3
20260508083024 55 63 5.2 13.0 0.00 0.00 0.00 54 1027.3
20260508081553 55 58 8.7 14.8 0.00 0.00 0.00 55 1027.4
20260508080020 55 53 3.5 13.0 0.00 0.00 0.00 58 1027.2
20260508074517 55 13 6.1 12.2 0.00 0.00 0.00 58 1027.3
20260508073016 54 61 7.0 13.0 0.00 0.00 0.00 59 1027.3
20260508071531 54 91 7.0 13.9 0.00 0.00 0.00 60 1027.1
20260508070011 54 61 4.3 13.0 0.00 0.00 0.00 64 1026.8
20260508064511 54 18 7.8 13.0 0.00 0.00 0.00 66 1026.8
20260508063009 53 82 5.2 9.6 0.00 0.00 0.00 70 1026.7
20260508061559 51 34 5.2 11.3 0.00 0.00 0.00 72 1026.6
20260508060057 49 75 3.5 11.3 0.00 0.00 0.00 76 1026.5
20260508054550 49 78 4.3 8.7 0.00 0.00 0.00 77 1026.5
20260508053045 47 85 2.6 7.0 0.00 0.00 0.00 81 1026.5
20260508051541 44 68 2.6 5.2 0.00 0.00 0.00 83 1026.4
20260508050037 42 46 3.5 7.8 0.00 0.00 0.00 86 1026.1
20260508044532 39 43 2.6 4.3 0.00 0.00 0.00 88 1026.1
20260508043027 36 83 0.9 3.5 0.00 0.00 0.00 88 1026.0
20260508041523 34 89 1.7 3.5 0.00 0.00 0.00 88 1025.8
20260508033017 31 42 2.6 4.3 0.00 0.00 0.00 91 1025.6
20260508031511 30 44 0.9 3.5 0.00 0.00 0.00 92 1025.5
20260508021557 30 65 1.7 3.5 0.00 0.00 0.00 92 1024.8
20260508020100 30 66 0.0 2.6 0.00 0.00 0.00 93 1024.6
20260508014553 29 72 1.7 3.5 0.00 0.00 0.00 94 1024.6
20260508013049 29 69 0.0 0.0 0.00 0.00 0.00 96 1024.4
20260508011546 29 69 0.0 0.0 0.00 0.00 0.00 96 1024.5
20260508010044 30 69 0.0 0.0 0.00 0.00 0.00 95 1024.3
20260508004543 30 69 0.0 0.0 0.00 0.00 0.00 96 1024.3
20260508003041 30 69 0.0 0.0 0.00 0.00 0.00 97 1024.2
20260508001539 30 69 0.0 0.0 0.00 0.00 0.00 97 1024.1